DL5TW-13 Weather Reports


time (UTC)temp
F
wind
direction
speed
knots
gust
knots
rain 1hr
in
rain 24hr
in
rain mn
in
humidity
%
barometer
mb
20260507114241 50 67 0.0 0.0 0.02 5.77 0.00 90 1008.4
20260507113740 50 90 0.0 2.6 0.02 5.77 0.00 90 1008.4
20260507113240 50 67 2.6 2.6 0.02 5.77 0.00 90 1008.3
20260507112740 50 45 0.0 0.0 0.02 5.77 0.00 90 1008.3
20260507112240 50 67 0.0 0.0 0.02 5.77 0.00 91 1008.2
20260507111739 49 67 0.0 0.9 0.02 5.77 0.00 90 1008.1
20260507111239 49 112 0.0 3.5 0.02 5.77 0.00 90 1008.3
20260507110739 50 67 3.5 3.5 0.00 5.75 0.00 91 1008.3
20260507110238 49 90 0.0 1.7 0.00 5.75 0.00 91 1008.2
20260507105738 49 67 1.7 3.5 0.00 5.75 0.00 91 1008.1
20260507105238 49 45 3.5 3.5 0.00 5.75 0.00 91 1008.0
20260507104738 49 67 1.7 1.7 0.02 5.75 0.00 91 1008.1
20260507104237 49 157 0.0 1.7 0.02 5.75 0.00 91 1007.9
20260507103737 49 90 1.7 1.7 0.02 5.75 0.00 91 1008.0
20260507103237 49 67 0.0 4.3 0.02 5.75 0.00 91 1008.0
20260507102736 49 67 0.0 0.0 0.02 5.75 0.00 91 1008.0
20260507102236 49 67 0.0 0.0 0.02 5.75 0.00 91 1007.8
20260507101736 49 67 0.0 0.0 0.02 5.75 0.00 91 1007.7
20260507101236 49 67 0.0 0.9 0.02 5.75 0.00 91 1007.6
20260507100735 49 90 0.0 0.0 0.02 5.75 0.00 91 1007.5
20260507100235 49 67 0.0 0.0 0.02 5.75 0.00 91 1007.7
20260507095735 49 270 0.0 0.0 0.02 5.75 0.00 91 1007.5
20260507095234 49 45 0.0 0.0 0.00 5.73 0.00 91 1007.5
20260507094734 49 247 0.0 0.0 0.00 5.73 0.00 91 1007.3
20260507094234 49 247 0.0 0.0 0.00 5.73 0.00 91 1007.2
20260507093734 49 180 0.0 0.0 0.00 5.73 0.00 91 1007.2
20260507093233 49 270 0.0 0.0 0.00 5.73 0.00 91 1007.2
20260507092733 49 90 0.0 0.0 0.00 5.73 0.00 91 1007.1
20260507092233 50 112 0.0 0.0 0.00 5.73 0.00 91 1007.1
20260507091732 50 67 0.0 0.0 0.00 5.73 0.00 91 1006.9
20260507091232 50 112 0.0 0.0 0.00 5.73 0.00 91 1006.8
20260507090732 50 157 0.0 0.0 0.00 5.73 0.00 91 1006.7
20260507090232 50 90 0.0 0.0 0.00 5.73 0.00 91 1006.6
20260507085731 50 270 0.0 0.0 0.00 5.73 0.00 91 1006.6
20260507085231 50 225 0.0 0.0 0.00 5.73 0.00 92 1006.7
20260507084731 50 0 0.0 0.0 0.00 5.73 0.00 92 1006.6
20260507084230 50 135 0.0 0.0 0.00 5.73 0.00 92 1006.5
20260507083730 50 247 0.0 0.0 0.00 5.73 0.00 92 1006.4
20260507083230 50 247 0.0 0.0 0.00 5.73 0.00 92 1006.3
20260507082730 50 45 0.0 0.0 0.00 5.73 0.00 92 1006.5
20260507082229 50 292 0.0 0.0 0.02 5.73 0.00 92 1006.4
20260507081729 50 247 0.0 0.0 0.02 5.73 0.00 92 1006.3
20260507081229 50 270 0.0 0.0 0.02 5.73 0.00 92 1006.3
20260507080728 50 270 0.0 0.0 0.02 5.73 0.00 92 1006.1
20260507080228 50 337 0.0 0.0 0.02 5.73 0.00 93 1006.0
20260507075728 50 292 0.0 0.0 0.02 5.73 0.00 93 1006.0
20260507075228 50 292 0.0 0.0 0.02 5.73 0.00 93 1006.0
20260507074727 50 67 0.0 0.0 0.04 5.73 0.00 93 1005.9
20260507074227 50 90 0.0 0.0 0.04 5.73 0.00 93 1005.9
20260507073727 50 270 0.0 0.0 0.04 5.73 0.00 93 1005.8
20260507073226 50 337 0.0 0.0 0.04 5.73 0.00 93 1005.7
20260507072726 50 112 0.0 0.0 0.02 5.71 0.00 93 1005.7
20260507072226 50 112 0.0 0.0 0.02 5.71 0.00 93 1005.7
20260507071726 50 90 0.0 0.0 0.02 5.71 0.00 93 1005.6
20260507071225 50 67 0.0 0.0 0.04 5.71 0.00 93 1005.4
20260507070725 49 67 0.0 0.0 0.04 5.71 0.00 93 1005.4
20260507070225 49 225 0.0 0.0 0.04 5.71 0.00 93 1005.3
20260507065724 48 225 0.0 0.0 0.04 5.71 0.00 93 1005.4
20260507065224 48 225 0.0 0.0 0.02 5.68 0.00 93 1005.4
20260507064724 48 247 0.0 0.0 0.02 5.68 0.00 93 1005.4
20260507064224 48 247 0.0 0.0 0.02 5.68 0.00 93 1005.2
20260507063723 48 225 0.0 0.0 0.02 5.68 0.00 93 1005.1
20260507063223 48 225 0.0 0.0 0.02 5.68 0.00 93 1005.3
20260507062723 48 247 0.0 0.0 0.02 5.68 0.00 93 1005.2
20260507062222 48 202 0.0 0.0 0.04 5.68 0.00 93 1005.1
20260507061722 48 202 0.0 0.0 0.02 5.66 0.00 93 1005.1
20260507061222 48 247 0.0 0.0 0.02 5.66 0.00 93 1005.1
20260507060722 48 270 0.0 0.0 0.02 5.66 0.00 93 1004.9
20260507060221 48 270 0.0 0.0 0.02 5.66 0.00 92 1005.1
20260507055721 48 270 0.0 0.0 0.04 5.66 0.00 92 1005.0
20260507055221 48 270 0.0 0.0 0.08 5.66 0.00 92 1004.9
20260507054720 48 270 0.0 0.0 0.08 5.66 0.00 92 1004.8
20260507054220 48 270 0.0 0.0 0.08 5.66 0.00 92 1004.9
20260507053720 48 270 0.0 0.0 0.08 5.66 0.00 92 1005.0
20260507053220 48 225 0.0 0.0 0.08 5.66 0.00 92 1005.0
20260507052719 48 270 0.0 0.0 0.06 5.64 0.00 92 1004.8
20260507052219 48 270 0.0 0.0 0.08 5.64 0.00 92 1004.8
20260507051719 48 337 0.0 0.0 0.08 5.64 0.00 92 1004.5
20260507051218 48 112 0.0 0.0 0.08 5.64 0.00 92 1004.6
20260507050718 48 112 0.0 0.0 0.10 5.64 0.00 92 1004.5
20260507050218 48 112 0.0 0.0 0.10 5.62 0.00 92 1004.4
20260507045718 48 22 0.0 0.0 0.10 5.62 0.00 92 1004.3
20260507045217 48 247 0.0 0.0 0.06 5.58 0.00 92 1004.4
20260507044717 48 270 0.0 0.0 0.06 5.58 0.00 92 1004.3
20260507044217 48 270 0.0 0.0 0.06 5.58 0.00 92 1004.2
20260507043716 48 135 0.0 0.0 0.06 5.58 0.00 92 1004.1
20260507043216 48 90 0.0 0.0 0.06 5.58 0.00 92 1004.0
20260507042716 48 202 0.0 0.0 0.04 5.56 0.00 92 1003.9
20260507042216 48 225 0.0 0.0 0.04 5.56 0.00 92 1003.9
20260507041715 48 292 0.0 0.0 0.04 5.56 0.00 92 1003.8
20260507041215 48 202 0.0 0.0 0.04 5.56 0.00 92 1003.6
20260507040715 48 270 0.0 0.0 0.04 5.54 0.00 92 1003.8
20260507040214 48 225 0.0 0.0 0.02 5.52 0.00 92 1003.8
20260507035714 48 270 0.0 0.0 0.02 5.52 0.00 92 1003.8
20260507035214 49 135 0.0 0.0 0.02 5.52 0.00 92 1003.6
20260507034714 49 22 0.0 0.0 0.02 5.52 0.00 92 1003.4
20260507034213 49 225 0.0 0.0 0.04 5.52 0.00 92 1003.5
20260507033713 49 270 0.0 0.0 0.04 5.52 0.00 92 1003.4
20260507033213 49 270 0.0 0.0 0.04 5.52 0.00 92 1003.3
20260507032712 49 67 0.0 0.0 0.04 5.52 0.00 92 1003.4
20260507032212 49 247 0.0 0.0 0.04 5.52 0.00 92 1003.5
20260507031712 49 202 0.0 0.0 0.04 5.52 0.00 92 1003.4
20260507031211 49 270 0.0 0.0 0.04 5.52 0.00 92 1003.4
20260507030711 49 0 0.0 0.0 0.02 5.50 0.00 92 1003.3
20260507030211 49 112 0.0 0.0 0.02 5.50 0.00 92 1003.3
20260507025711 49 112 0.0 0.0 0.02 5.50 0.00 92 1003.2
20260507025210 49 315 0.0 0.0 0.02 5.50 0.00 92 1003.1
20260507024710 49 247 0.0 0.0 0.02 5.50 0.00 92 1003.0
20260507024210 50 270 0.0 0.0 0.00 5.48 0.00 92 1003.1
20260507023709 50 247 0.0 0.0 0.00 5.48 0.00 91 1003.1
20260507023209 50 292 0.0 0.0 0.00 5.48 0.00 91 1003.3
20260507022709 50 270 0.0 0.0 0.00 5.48 0.00 91 1003.2
20260507022209 50 292 0.0 0.0 0.00 5.48 0.00 91 1003.1
20260507021708 50 67 0.0 0.0 0.00 5.48 0.00 91 1003.0
20260507021208 50 247 0.0 0.0 0.00 5.48 0.00 91 1003.0
20260507020708 50 292 0.0 0.0 0.00 5.48 0.00 91 1002.9
20260507020207 50 67 0.0 0.0 0.00 5.48 0.00 91 1002.9
20260507015707 50 247 0.0 0.0 0.00 5.48 0.00 91 1002.8
20260507015207 50 225 0.0 0.0 0.00 5.48 0.00 91 1002.7
20260507014707 50 270 0.0 0.0 0.00 5.48 0.00 91 1002.6
20260507014206 51 292 0.0 0.0 0.00 5.48 0.00 91 1002.6
20260507013706 51 292 0.0 0.0 0.00 5.48 0.00 91 1002.6
20260507013206 51 270 0.0 0.0 0.02 5.48 0.00 91 1002.8
20260507012705 51 202 0.0 0.0 0.02 5.48 0.00 91 1002.6
20260507012205 51 292 0.0 0.0 0.02 5.48 0.00 91 1002.7
20260507011705 52 270 0.0 0.0 0.02 5.48 0.00 91 1002.5
20260507011205 52 247 0.0 0.0 0.02 5.48 0.00 91 1002.5
20260507010704 52 112 0.0 0.0 0.02 5.48 0.00 91 1002.6
20260507010204 52 292 0.0 0.0 0.02 5.48 0.00 91 1002.5
20260507005704 52 292 0.0 0.0 0.02 5.48 0.00 91 1002.7
20260507005203 52 67 0.0 0.0 0.02 5.48 0.00 90 1002.7
20260507004703 52 67 0.0 0.0 0.02 5.48 0.00 90 1002.6
20260507004203 52 67 0.0 0.0 0.02 5.48 0.00 90 1002.5
20260507003703 52 45 0.0 0.0 0.02 5.48 0.00 90 1002.5
20260507003202 52 45 0.0 0.0 0.00 5.46 0.00 90 1002.5
20260507002702 51 45 0.0 0.0 0.00 5.46 0.00 90 1002.6
20260507002202 51 45 0.0 0.0 0.00 5.46 0.00 90 1002.6
20260507001701 51 45 0.0 0.0 0.00 5.46 0.00 90 1002.6
20260507001201 51 67 0.0 0.0 0.00 5.46 0.00 90 1002.5
20260507000701 51 67 0.0 0.0 0.00 5.46 0.00 90 1002.5
20260507000201 51 202 0.0 0.0 0.00 5.46 0.00 90 1002.6
20260506235700 51 202 0.0 0.0 0.00 5.46 0.00 90 1002.5
20260506235200 51 180 0.0 0.0 0.00 5.46 0.00 90 1002.4
20260506234700 51 180 0.0 0.0 0.00 5.46 0.00 90 1002.3
20260506234159 51 180 0.0 0.0 0.00 5.46 0.00 89 1002.5
20260506233659 51 180 0.0 0.0 0.00 5.46 0.00 89 1002.5
20260506233159 51 180 0.0 0.0 0.00 5.46 0.00 89 1002.5
20260506232658 51 180 0.0 0.0 0.00 5.46 0.00 89 1002.4
20260506232158 51 180 0.0 0.0 0.00 5.46 0.00 89 1002.5
20260506231658 51 180 0.0 0.0 0.00 5.46 0.00 89 1002.4
20260506231158 51 180 0.0 0.0 0.00 5.46 0.00 89 1002.3
20260506230657 51 180 0.0 0.0 0.00 5.46 0.00 89 1002.2
20260506230157 52 180 0.0 0.0 0.00 5.46 0.00 89 1002.2
20260506225657 52 180 0.0 0.0 0.00 5.48 0.00 89 1002.3
20260506225157 52 180 0.0 0.0 0.00 5.48 0.00 89 1002.3
20260506224656 52 180 0.0 0.0 0.00 5.48 0.00 89 1002.2
20260506224156 52 180 0.0 0.0 0.00 5.48 0.00 89 1002.3
20260506223656 51 180 0.0 0.0 0.00 5.48 0.00 89 1002.2
20260506223155 51 180 0.0 0.0 0.00 5.48 0.00 89 1002.3
20260506222655 51 180 0.0 0.0 0.00 5.48 0.00 89 1002.3
20260506222155 51 180 0.0 0.0 0.02 5.48 0.00 89 1002.2
20260506221654 51 180 0.0 0.0 0.02 5.48 0.00 89 1002.2
20260506221154 51 180 0.0 0.0 0.10 5.48 0.00 89 1002.3
20260506220654 52 180 0.0 0.0 0.12 5.48 0.00 89 1002.3
20260506220154 52 180 0.0 0.0 0.12 5.48 0.00 88 1002.1
20260506215653 52 180 0.0 0.0 0.12 5.52 0.00 88 1002.2
20260506215153 52 180 0.0 0.0 0.18 5.52 0.00 88 1002.2
20260506214653 52 180 0.0 0.0 0.20 5.52 0.00 88 1002.1
20260506214152 52 180 0.0 0.0 0.22 5.52 0.00 88 1002.2
20260506213652 52 180 0.0 0.0 0.22 5.52 0.00 88 1002.3
20260506213152 52 225 0.0 0.0 0.22 5.52 0.00 88 1002.2
20260506212652 52 225 0.0 0.0 0.20 5.50 0.00 88 1002.3
20260506212151 52 247 0.0 0.0 0.22 5.50 0.00 88 1002.2
20260506211651 52 247 0.0 0.0 0.18 5.46 0.00 88 1002.2
20260506211151 52 247 0.0 0.0 0.14 5.42 0.00 88 1002.2
20260506210650 52 270 0.0 0.0 0.12 5.40 0.00 87 1002.1
20260506210150 52 292 0.0 0.0 0.12 5.40 0.00 87 1002.1
20260506205650 52 270 0.0 0.0 0.14 5.50 0.00 86 1002.2
20260506205150 53 247 0.0 0.0 0.08 5.44 0.00 86 1002.1
20260506204649 53 270 0.0 0.0 0.04 5.40 0.00 86 1002.2
20260506204149 53 247 0.0 0.0 0.04 5.40 0.00 86 1002.3
20260506203649 53 225 0.0 0.0 0.04 5.40 0.00 85 1002.3
20260506203148 53 225 0.0 0.0 0.04 5.40 0.00 85 1002.3
20260506202648 53 225 0.0 0.0 0.02 5.38 0.00 85 1002.2
20260506202148 53 225 0.0 0.0 0.02 5.38 0.00 85 1002.3
20260506201648 53 202 0.0 0.0 0.02 5.38 0.00 84 1002.1
20260506201147 53 202 0.0 0.0 0.02 5.38 0.00 84 1002.1
20260506200647 53 270 0.0 0.0 0.02 5.38 0.00 84 1002.0
20260506200147 53 247 0.0 0.0 0.00 5.36 0.00 83 1001.8
20260506195646 53 270 0.0 0.0 0.00 5.60 0.00 82 1001.7
20260506195146 54 270 0.0 0.0 0.55 5.60 0.00 82 1001.7
20260506194646 54 270 0.0 0.0 0.55 5.60 0.00 82 1001.7
20260506194146 54 270 0.0 0.0 5.75 5.60 0.00 82 1001.7
20260506193645 54 67 0.0 0.0 5.75 5.60 0.00 82 1001.6
20260506193145 54 225 0.0 0.0 5.93 5.60 0.00 82 1001.7
20260506192645 54 135 0.0 0.0 5.93 5.60 0.00 83 1001.7
20260506192144 54 135 0.0 0.0 5.93 5.60 0.00 82 1001.4
20260506191644 54 90 0.0 0.0 5.93 5.60 0.00 82 1001.3
20260506191144 54 90 0.0 0.0 5.93 5.60 0.00 82 1001.2
20260506190644 54 90 0.0 0.0 5.93 5.60 0.00 83 1001.2
20260506190143 53 270 0.0 0.0 5.93 5.60 0.00 82 1001.1
20260506185143 53 270 0.0 0.0 5.38 6.30 0.00 83 1000.7
20260506184642 53 270 0.0 0.0 0.18 1.28 0.00 83 1000.7
20260506184142 53 247 0.0 0.0 0.18 1.28 0.00 82 1000.7
20260506183642 53 247 0.0 0.0 0.00 1.10 0.00 82 1000.5
20260506183142 53 202 0.0 0.0 0.00 1.10 0.00 82 1000.5
20260506182641 53 202 0.0 0.0 0.00 1.10 0.00 81 1000.5
20260506182141 53 180 0.0 0.0 0.00 1.10 0.00 81 1000.3
20260506181641 53 180 0.0 0.0 0.00 1.10 0.00 81 1000.4
20260506181140 53 180 0.0 0.0 0.00 1.10 0.00 80 1000.3
20260506180640 53 225 0.0 0.0 0.00 1.10 0.00 80 1000.3
20260506180140 53 225 0.0 0.0 0.00 1.10 0.00 78 1000.3
20260506175640 53 225 0.0 0.0 0.00 1.14 0.00 78 1000.3
20260506175139 54 270 0.0 0.0 0.00 1.14 0.00 77 1000.2
20260506174639 54 225 0.0 0.0 0.00 1.14 0.00 77 1000.2
20260506174139 54 225 0.0 0.0 0.00 1.14 0.00 75 1000.5
20260506173638 55 225 0.0 0.0 0.00 1.14 0.00 75 1000.5
20260506173138 55 225 0.0 1.7 0.00 1.14 0.00 73 1000.6
20260506172638 55 202 1.7 1.7 0.00 1.14 0.00 70 1000.5
20260506172138 57 225 1.7 3.5 0.00 1.14 0.00 67 1000.5
20260506171637 58 225 3.5 3.5 0.00 1.14 0.00 62 1000.5
20260506171137 60 202 0.0 0.0 0.00 1.14 0.00 59 1000.4
20260506170637 60 202 0.0 1.7 0.00 1.14 0.00 59 1000.3
20260506170136 61 292 1.7 4.3 0.00 1.14 0.00 59 1000.4
20260506165636 62 292 0.0 5.2 0.00 1.14 0.00 61 1000.6
20260506165136 62 270 0.0 0.0 0.00 1.14 0.00 60 1000.4
20260506164636 63 180 0.0 0.0 0.00 1.14 0.00 59 1000.1
20260506164135 63 225 0.0 1.7 0.00 1.14 0.00 58 1000.3
20260506163635 63 202 0.0 0.0 0.00 1.14 0.00 58 1000.2
20260506163135 64 225 0.0 0.0 0.00 1.14 0.00 57 1000.1
20260506162634 64 180 0.0 0.9 0.00 1.14 0.00 57 1000.2
20260506161634 65 225 0.0 0.0 0.00 1.14 0.00 55 1000.2
20260506161133 65 225 0.0 0.0 0.00 1.14 0.00 55 1000.2
20260506160633 66 90 0.0 2.6 0.00 1.14 0.00 55 1000.2
20260506160133 66 225 2.6 2.6 0.00 1.14 0.00 55 1000.1
20260506155633 66 292 0.0 1.7 0.00 1.14 0.00 54 1000.0
20260506155132 67 225 1.7 5.2 0.00 1.14 0.00 53 1000.0
20260506154632 67 247 0.0 4.3 0.00 1.14 0.00 53 1000.0
20260506154132 68 202 0.0 1.7 0.00 1.14 0.00 53 1000.1
20260506153631 68 202 0.0 0.0 0.00 1.14 0.00 53 1000.0
20260506153131 68 157 0.0 0.0 0.00 1.14 0.00 53 999.9
20260506152631 68 157 0.0 0.0 0.00 1.14 0.00 54 1000.0
20260506152131 67 225 0.0 3.5 0.00 1.14 0.00 54 999.9
20260506151630 67 112 3.5 3.5 0.00 1.14 0.00 54 1000.1
20260506151130 67 112 3.5 3.5 0.00 1.14 0.00 52 999.7
20260506150630 68 202 0.0 5.2 0.00 1.14 0.00 52 999.7
20260506150129 69 247 5.2 5.2 0.00 1.14 0.00 52 999.8
20260506145629 69 225 2.6 7.8 0.00 1.14 0.00 51 1000.0
20260506145129 70 225 7.8 7.8 0.00 1.14 0.00 49 1000.0
20260506144629 71 180 2.6 4.3 0.00 1.14 0.00 48 1000.2
20260506144128 72 180 0.0 5.2 0.00 1.14 0.00 47 999.9
20260506143628 72 247 5.2 5.2 0.00 1.14 0.00 47 999.9
20260506143128 72 202 1.7 2.6 0.00 1.14 0.00 47 1000.0
20260506142627 72 157 0.0 2.6 0.00 1.14 0.00 48 999.9
20260506142127 71 112 2.6 2.6 0.00 1.14 0.00 48 1000.0
20260506141627 71 157 0.0 2.6 0.00 1.14 0.00 47 1000.0
20260506141127 73 202 2.6 2.6 0.00 1.14 0.00 46 999.9
20260506140626 73 225 0.0 5.2 0.00 1.14 0.00 45 1000.0
20260506140126 74 112 5.2 5.2 0.00 1.14 0.00 44 1000.1
20260506135626 75 90 3.5 3.5 0.00 1.14 0.00 44 1000.1
20260506135125 74 225 0.0 1.7 0.00 1.14 0.00 44 1000.1
20260506134625 73 225 0.0 4.3 0.00 1.14 0.00 44 1000.0
20260506134125 74 180 4.3 4.3 0.00 1.14 0.00 46 1000.1
20260506133625 74 157 4.3 4.3 0.00 1.14 0.00 46 1000.2
20260506133124 74 225 0.0 3.5 0.00 1.14 0.00 44 1000.1
20260506132624 75 202 3.5 3.5 0.00 1.14 0.00 45 1000.1
20260506132124 74 225 0.0 5.2 0.00 1.14 0.00 46 1000.1
20260506131623 74 225 5.2 5.2 0.00 1.14 0.00 45 1000.4
20260506131123 74 180 2.6 2.6 0.00 1.14 0.00 47 1000.2
20260506130623 73 202 0.0 2.6 0.00 1.14 0.00 47 1000.2
20260506130123 73 247 0.9 0.9 0.00 1.14 0.00 48 1000.2
20260506125622 71 247 0.0 0.0 0.00 1.14 0.00 49 1000.3
20260506125122 71 225 0.0 1.7 0.00 1.14 0.00 49 1000.4
20260506124622 71 270 1.7 3.5 0.00 1.14 0.00 48 1000.4
20260506124121 72 225 3.5 3.5 0.00 1.14 0.00 48 1000.4
20260506123621 71 180 0.0 7.0 0.00 1.14 0.00 48 1000.4
20260506123121 72 180 7.0 8.7 0.00 1.14 0.00 47 1000.4
20260506122621 72 225 8.7 8.7 0.00 1.14 0.00 47 1000.4
20260506122120 72 225 7.0 7.0 0.00 1.14 0.00 48 1000.4
20260506121620 71 270 7.0 7.0 0.00 1.14 0.00 47 1000.2
20260506121120 72 270 7.0 7.0 0.00 1.14 0.00 47 1000.1
20260506120619 73 270 4.3 4.3 0.00 1.14 0.00 48 1000.2
20260506120119 73 180 0.0 1.7 0.00 1.14 0.00 49 1000.2
20260506115619 72 202 0.0 3.5 0.00 1.14 0.00 49 1000.3
20260506115119 72 225 2.6 3.5 0.00 1.14 0.00 49 1000.4
20260506114618 70 202 3.5 3.5 0.00 1.14 0.00 51 1000.4